Date String (YYYY-MM-DD hh:mm:ss) UTC,Instrument flags,Ambient pressure (hPa),Sample flow (lpm),Bypass flow (lpm),Sample temperature (°C),Ambient temperature (°C),ASC tube jacket temperature (°C),LED temperature (°C),Box temperature (°C),Sample RH (%),Span deviation,Mass concentration (μg/m³),Mass concentration (μg/m³),Mass concentration (μg/m³)
DateTimeUTC,F1_M11,P_M11,Q1_M11,Q2_M11,T1_M11,T2_M11,T3_M11,T4_M11,T5_M11,U1_M11,ZSPAN_M11,X2_M11,X0_M11,X1_M11
2022-07-10 18:00:00,,0830.6,5.01,0.00,37.4,36.8,00.0,45.9,38.8,10.1,0000.0,0005.17,0009.34,0004.62
2022-07-10 18:01:00,,0830.6,5.00,0.00,37.5,36.8,00.0,45.9,38.9,09.9,0000.0,0005.24,0009.09,0004.67
2022-07-10 18:02:00,,0830.6,5.00,0.00,37.5,36.9,00.0,45.9,38.9,09.9,0000.0,0005.29,0009.10,0004.76
2022-07-10 18:03:00,,0830.6,5.00,0.00,37.5,36.9,00.0,46.0,38.9,09.9,0000.0,0005.38,0009.34,0004.84
2022-07-10 18:04:00,,0830.6,5.00,0.00,37.6,37.0,00.0,46.0,39.0,10.0,0000.0,0005.47,0009.73,0004.92
2022-07-10 18:05:00,,0830.6,5.00,0.00,37.6,37.0,00.0,46.0,39.0,09.9,0000.0,0005.51,0009.78,0004.98
2022-07-10 18:06:00,,0830.6,5.00,0.00,37.6,37.0,00.0,46.1,39.0,09.9,0000.0,0005.61,0009.95,0005.05
2022-07-10 18:07:00,,0830.6,5.00,0.00,37.7,37.1,00.0,46.1,39.0,09.9,0000.0,0005.67,0010.19,0005.10
2022-07-10 18:08:00,,0830.6,5.00,0.00,37.7,37.1,00.0,46.2,39.1,09.8,0000.0,0005.68,0010.37,0005.14
2022-07-10 18:09:00,,0830.6,4.99,0.00,37.7,37.1,00.0,46.2,39.1,09.7,0000.0,0005.71,0010.65,0005.19
2022-07-10 18:10:00,,0830.6,5.00,0.00,37.8,37.1,00.0,46.2,39.2,09.7,0000.0,0005.78,0011.31,0005.26
2022-07-10 18:11:00,,0830.5,5.00,0.00,37.8,37.2,00.0,46.3,39.2,09.8,0000.0,0005.85,0011.92,0005.31
2022-07-10 18:12:00,,0830.6,5.00,0.00,37.8,37.2,00.0,46.3,39.2,09.9,0000.0,0005.91,0012.68,0005.34
2022-07-10 18:13:00,,0830.5,5.00,0.00,37.9,37.2,00.0,46.3,39.2,09.9,0000.0,0005.92,0012.88,0005.34
2022-07-10 18:14:00,,0830.5,4.99,0.00,37.9,37.2,00.0,46.3,39.3,09.8,0000.0,0005.94,0013.12,0005.33
2022-07-10 18:15:00,,0830.5,5.00,0.00,37.9,37.3,00.0,46.4,39.3,09.5,0000.0,0005.95,0012.90,0005.34
2022-07-10 18:16:00,,0830.5,4.99,0.00,38.0,37.3,00.0,46.4,39.3,09.6,0000.0,0006.03,0012.98,0005.35
2022-07-10 18:17:00,,0830.5,5.00,0.00,38.0,37.3,00.0,46.5,39.4,09.5,0000.0,0006.01,0012.86,0005.34
2022-07-10 18:18:00,,0830.5,4.98,0.00,38.0,37.4,00.0,46.5,39.4,09.3,0000.0,0005.97,0013.04,0005.33
2022-07-10 18:19:00,,0830.5,5.01,0.00,38.1,37.4,00.0,46.5,39.4,09.3,0000.0,0005.98,0012.94,0005.36
2022-07-10 18:20:00,,0830.5,5.00,0.00,38.1,37.4,00.0,46.6,39.4,09.2,0000.0,0005.99,0012.87,0005.36
2022-07-10 18:21:00,,0830.5,4.99,0.00,38.1,37.4,00.0,46.6,39.5,09.1,0000.0,0005.98,0012.55,0005.33
2022-07-10 18:22:00,,0830.4,5.00,0.00,38.2,37.5,00.0,46.6,39.5,09.4,0000.0,0005.97,0012.27,0005.32
2022-07-10 18:23:00,,0830.4,5.01,0.00,38.2,37.5,00.0,46.6,39.5,09.5,0000.0,0005.91,0011.38,0005.30
2022-07-10 18:24:00,,0830.4,4.99,0.00,38.2,37.5,00.0,46.7,39.6,09.5,0000.0,0005.91,0011.18,0005.30
2022-07-10 18:25:00,,0830.4,5.01,0.00,38.3,37.5,00.0,46.7,39.6,09.6,0000.0,0005.89,0011.08,0005.30
2022-07-10 18:26:00,,0830.4,4.99,0.00,38.3,37.6,00.0,46.7,39.6,09.9,0000.0,0005.86,0011.24,0005.30
2022-07-10 18:27:00,,0830.4,5.00,0.00,38.3,37.6,00.0,46.8,39.6,09.6,0000.0,0005.80,0011.63,0005.30
2022-07-10 18:28:00,,0830.4,5.01,0.00,38.3,37.6,00.0,46.8,39.7,09.0,0000.0,0005.79,0011.59,0005.31
2022-07-10 18:29:00,,0830.4,5.00,0.00,38.4,37.7,00.0,46.8,39.7,08.9,0000.0,0005.78,0011.81,0005.30
2022-07-10 18:30:00,,0830.4,5.01,0.00,38.4,37.7,00.0,46.9,39.7,08.8,0000.0,0005.77,0011.50,0005.25
2022-07-10 18:31:00,,0830.4,5.00,0.00,38.4,37.7,00.0,46.9,39.7,08.7,0000.0,0005.76,0011.31,0005.22
2022-07-10 18:32:00,,0830.4,5.00,0.00,38.5,37.7,00.0,46.9,39.8,08.6,0000.0,0005.74,0011.14,0005.20
2022-07-10 18:33:00,,0830.3,4.99,0.00,38.5,37.8,00.0,47.0,39.8,08.8,0000.0,0005.70,0010.92,0005.18
2022-07-10 18:34:00,,0830.3,5.01,0.00,38.5,37.8,00.0,47.0,39.8,09.0,0000.0,0005.67,0010.73,0005.16
2022-07-10 18:35:00,,0830.3,5.00,0.00,38.5,37.8,00.0,47.0,39.8,09.0,0000.0,0005.66,0010.76,0005.14
2022-07-10 18:36:00,,0830.3,4.99,0.00,38.6,37.8,00.0,47.1,39.9,09.1,0000.0,0005.68,0011.16,0005.13
2022-07-10 18:37:00,,0830.3,5.00,0.00,38.6,37.8,00.0,47.1,39.9,09.3,0000.0,0005.74,0011.45,0005.11
2022-07-10 18:38:00,,0830.2,5.02,0.00,38.6,37.9,00.0,47.1,39.9,09.0,0000.0,0005.74,0010.99,0005.09
2022-07-10 18:39:00,,0830.2,4.99,0.00,38.7,37.9,00.0,47.1,39.9,09.1,0000.0,0005.71,0010.96,0005.07
2022-07-10 18:40:00,,0830.3,4.99,0.00,38.7,37.9,00.0,47.2,39.9,09.1,0000.0,0005.69,0010.54,0005.04
2022-07-10 18:41:00,,0830.2,5.01,0.00,38.7,37.9,00.0,47.2,40.0,09.3,0000.0,0005.69,0010.51,0005.04
2022-07-10 18:42:00,,0830.2,5.00,0.00,38.7,38.0,00.0,47.2,40.0,09.2,0000.0,0005.72,0010.61,0005.03
2022-07-10 18:43:00,,0830.3,5.00,0.00,38.8,38.0,00.0,47.2,40.0,08.9,0000.0,0005.71,0010.60,0005.02
2022-07-10 18:44:00,,0830.2,5.00,0.00,38.8,38.0,00.0,47.3,40.1,08.8,0000.0,0005.68,0010.60,0005.00
2022-07-10 18:45:00,,0830.1,5.00,0.00,38.8,38.0,00.0,47.3,40.1,08.7,0000.0,0005.66,0010.59,0004.97
2022-07-10 18:46:00,,0830.1,5.00,0.00,38.9,38.1,00.0,47.3,40.1,08.8,0000.0,0005.65,0010.62,0004.95
2022-07-10 18:47:00,,0830.1,4.99,0.00,38.9,38.1,00.0,47.4,40.1,08.8,0000.0,0005.60,0010.38,0004.93
2022-07-10 18:48:00,,0830.1,5.01,0.00,38.9,38.1,00.0,47.4,40.2,08.8,0000.0,0005.51,0009.92,0004.91
2022-07-10 18:49:00,,0830.1,4.99,0.00,38.9,38.1,00.0,47.4,40.2,08.8,0000.0,0005.47,0009.70,0004.88
2022-07-10 18:50:00,,0830.1,5.00,0.00,39.0,38.2,00.0,47.4,40.2,08.7,0000.0,0005.43,0009.71,0004.84
2022-07-10 18:51:00,,0830.0,5.00,0.00,39.0,38.2,00.0,47.5,40.2,08.7,0000.0,0005.43,0010.14,0004.83
2022-07-10 18:52:00,,0829.9,5.00,0.00,39.0,38.3,00.0,47.5,40.2,08.7,0000.0,0005.37,0010.06,0004.80
2022-07-10 18:53:00,,0829.9,5.00,0.00,39.0,38.3,00.0,47.5,40.3,08.8,0000.0,0005.30,0010.37,0004.77
2022-07-10 18:54:00,,0829.9,5.00,0.00,39.1,38.3,00.0,47.6,40.3,08.8,0000.0,0005.27,0010.82,0004.75
2022-07-10 18:55:00,,0829.9,5.01,0.00,39.1,38.4,00.0,47.6,40.3,09.1,0000.0,0005.30,0010.95,0004.75
2022-07-10 18:56:00,,0829.9,5.01,0.00,39.1,38.4,00.0,47.6,40.4,08.7,0000.0,0005.33,0011.39,0004.75
2022-07-10 18:57:00,,0829.9,5.00,0.00,39.2,38.4,00.0,47.6,40.4,08.6,0000.0,0005.32,0011.39,0004.74
2022-07-10 18:58:00,,0829.9,5.00,0.00,39.2,38.5,00.0,47.7,40.4,08.7,0000.0,0005.30,0011.15,0004.71
2022-07-10 18:59:00,,0829.9,5.00,0.00,39.2,38.5,00.0,47.7,40.5,08.5,0000.0,0005.27,0011.30,0004.69
